<?xml version="1.0"?>
<gpx xmlns="http://www.topografix.com/GPX/1/1" xmlns:xsi="http://www.w3.org/2001/XMLSchema-instance" version="1.1" creator="GPX RubyGem 1.0.0 -- http://dougfales.github.io/gpx/" xsi:schemaLocation="http://www.topografix.com/GPX/1/1 http://www.topografix.com/GPX/1/1/gpx.xsd">
  <metadata>
    <name/>
    <time>2026-05-08T21:23:30+00:00</time>
    <bound minlat="90.0" minlon="180.0" maxlat="-90.0" maxlon="-180.0"/>
  </metadata>
  <trk>
    <name/>
    <trkseg>
      <trkpt lat="48.256878" lon="8.30927">
        <time>1970-01-01T00:00:00+00:00</time>
        <ele>733.0</ele>
      </trkpt>
      <trkpt lat="48.256965" lon="8.309186">
        <time>1970-01-01T00:00:00+00:00</time>
        <ele>735.0</ele>
      </trkpt>
      <trkpt lat="48.256909" lon="8.308993">
        <time>1970-01-01T00:00:00+00:00</time>
        <ele>737.0</ele>
      </trkpt>
      <trkpt lat="48.256834" lon="8.308771">
        <time>1970-01-01T00:00:00+00:00</time>
        <ele>738.0</ele>
      </trkpt>
      <trkpt lat="48.256566" lon="8.308074">
        <time>1970-01-01T00:00:00+00:00</time>
        <ele>733.0</ele>
      </trkpt>
      <trkpt lat="48.256443" lon="8.3076">
        <time>1970-01-01T00:00:00+00:00</time>
        <ele>732.0</ele>
      </trkpt>
      <trkpt lat="48.256382" lon="8.307498">
        <time>1970-01-01T00:00:00+00:00</time>
        <ele>732.0</ele>
      </trkpt>
      <trkpt lat="48.256293" lon="8.307448">
        <time>1970-01-01T00:00:00+00:00</time>
        <ele>736.0</ele>
      </trkpt>
      <trkpt lat="48.256039" lon="8.30686">
        <time>1970-01-01T00:00:00+00:00</time>
        <ele>752.0</ele>
      </trkpt>
      <trkpt lat="48.255894" lon="8.306601">
        <time>1970-01-01T00:00:00+00:00</time>
        <ele>755.0</ele>
      </trkpt>
      <trkpt lat="48.255712" lon="8.306358">
        <time>1970-01-01T00:00:00+00:00</time>
        <ele>757.0</ele>
      </trkpt>
      <trkpt lat="48.255518" lon="8.306166">
        <time>1970-01-01T00:00:00+00:00</time>
        <ele>759.0</ele>
      </trkpt>
      <trkpt lat="48.255413" lon="8.306095">
        <time>1970-01-01T00:00:00+00:00</time>
        <ele>759.0</ele>
      </trkpt>
      <trkpt lat="48.255333" lon="8.306085">
        <time>1970-01-01T00:00:00+00:00</time>
        <ele>759.0</ele>
      </trkpt>
      <trkpt lat="48.255253" lon="8.305716">
        <time>1970-01-01T00:00:00+00:00</time>
        <ele>763.0</ele>
      </trkpt>
      <trkpt lat="48.255206" lon="8.305571">
        <time>1970-01-01T00:00:00+00:00</time>
        <ele>764.0</ele>
      </trkpt>
      <trkpt lat="48.255067" lon="8.305374">
        <time>1970-01-01T00:00:00+00:00</time>
        <ele>763.0</ele>
      </trkpt>
      <trkpt lat="48.254721" lon="8.305095">
        <time>1970-01-01T00:00:00+00:00</time>
        <ele>771.0</ele>
      </trkpt>
      <trkpt lat="48.254194" lon="8.304554">
        <time>1970-01-01T00:00:00+00:00</time>
        <ele>775.0</ele>
      </trkpt>
      <trkpt lat="48.253899" lon="8.304184">
        <time>1970-01-01T00:00:00+00:00</time>
        <ele>767.0</ele>
      </trkpt>
      <trkpt lat="48.253739" lon="8.303906">
        <time>1970-01-01T00:00:00+00:00</time>
        <ele>766.0</ele>
      </trkpt>
      <trkpt lat="48.253495" lon="8.303145">
        <time>1970-01-01T00:00:00+00:00</time>
        <ele>774.0</ele>
      </trkpt>
      <trkpt lat="48.253373" lon="8.302564">
        <time>1970-01-01T00:00:00+00:00</time>
        <ele>782.0</ele>
      </trkpt>
      <trkpt lat="48.253294" lon="8.302269">
        <time>1970-01-01T00:00:00+00:00</time>
        <ele>785.0</ele>
      </trkpt>
      <trkpt lat="48.253166" lon="8.301882">
        <time>1970-01-01T00:00:00+00:00</time>
        <ele>786.0</ele>
      </trkpt>
      <trkpt lat="48.253113" lon="8.301606">
        <time>1970-01-01T00:00:00+00:00</time>
        <ele>786.0</ele>
      </trkpt>
      <trkpt lat="48.253079" lon="8.301252">
        <time>1970-01-01T00:00:00+00:00</time>
        <ele>786.0</ele>
      </trkpt>
      <trkpt lat="48.253042" lon="8.300256">
        <time>1970-01-01T00:00:00+00:00</time>
        <ele>784.0</ele>
      </trkpt>
      <trkpt lat="48.252784" lon="8.300463">
        <time>1970-01-01T00:00:00+00:00</time>
        <ele>777.0</ele>
      </trkpt>
      <trkpt lat="48.252587" lon="8.300595">
        <time>1970-01-01T00:00:00+00:00</time>
        <ele>773.0</ele>
      </trkpt>
      <trkpt lat="48.252395" lon="8.300599">
        <time>1970-01-01T00:00:00+00:00</time>
        <ele>763.0</ele>
      </trkpt>
      <trkpt lat="48.25233" lon="8.300544">
        <time>1970-01-01T00:00:00+00:00</time>
        <ele>760.0</ele>
      </trkpt>
      <trkpt lat="48.252284" lon="8.300466">
        <time>1970-01-01T00:00:00+00:00</time>
        <ele>758.0</ele>
      </trkpt>
      <trkpt lat="48.252123" lon="8.299508">
        <time>1970-01-01T00:00:00+00:00</time>
        <ele>758.0</ele>
      </trkpt>
      <trkpt lat="48.251942" lon="8.298804">
        <time>1970-01-01T00:00:00+00:00</time>
        <ele>753.0</ele>
      </trkpt>
      <trkpt lat="48.252122" lon="8.298786">
        <time>1970-01-01T00:00:00+00:00</time>
        <ele>758.0</ele>
      </trkpt>
      <trkpt lat="48.25219" lon="8.298721">
        <time>1970-01-01T00:00:00+00:00</time>
        <ele>759.0</ele>
      </trkpt>
      <trkpt lat="48.252231" lon="8.298605">
        <time>1970-01-01T00:00:00+00:00</time>
        <ele>760.0</ele>
      </trkpt>
      <trkpt lat="48.252243" lon="8.298183">
        <time>1970-01-01T00:00:00+00:00</time>
        <ele>757.0</ele>
      </trkpt>
      <trkpt lat="48.252275" lon="8.297726">
        <time>1970-01-01T00:00:00+00:00</time>
        <ele>756.0</ele>
      </trkpt>
      <trkpt lat="48.252356" lon="8.297257">
        <time>1970-01-01T00:00:00+00:00</time>
        <ele>759.0</ele>
      </trkpt>
      <trkpt lat="48.252356" lon="8.297257">
        <time>1970-01-01T00:00:00+00:00</time>
        <ele>759.0</ele>
      </trkpt>
      <trkpt lat="48.252275" lon="8.297726">
        <time>1970-01-01T00:00:00+00:00</time>
        <ele>756.0</ele>
      </trkpt>
      <trkpt lat="48.252243" lon="8.298183">
        <time>1970-01-01T00:00:00+00:00</time>
        <ele>757.0</ele>
      </trkpt>
      <trkpt lat="48.252231" lon="8.298605">
        <time>1970-01-01T00:00:00+00:00</time>
        <ele>760.0</ele>
      </trkpt>
      <trkpt lat="48.25219" lon="8.298721">
        <time>1970-01-01T00:00:00+00:00</time>
        <ele>759.0</ele>
      </trkpt>
      <trkpt lat="48.252122" lon="8.298786">
        <time>1970-01-01T00:00:00+00:00</time>
        <ele>758.0</ele>
      </trkpt>
      <trkpt lat="48.251942" lon="8.298804">
        <time>1970-01-01T00:00:00+00:00</time>
        <ele>753.0</ele>
      </trkpt>
      <trkpt lat="48.252123" lon="8.299508">
        <time>1970-01-01T00:00:00+00:00</time>
        <ele>758.0</ele>
      </trkpt>
      <trkpt lat="48.252284" lon="8.300466">
        <time>1970-01-01T00:00:00+00:00</time>
        <ele>758.0</ele>
      </trkpt>
      <trkpt lat="48.25233" lon="8.300544">
        <time>1970-01-01T00:00:00+00:00</time>
        <ele>760.0</ele>
      </trkpt>
      <trkpt lat="48.252395" lon="8.300599">
        <time>1970-01-01T00:00:00+00:00</time>
        <ele>763.0</ele>
      </trkpt>
      <trkpt lat="48.252587" lon="8.300595">
        <time>1970-01-01T00:00:00+00:00</time>
        <ele>773.0</ele>
      </trkpt>
      <trkpt lat="48.252784" lon="8.300463">
        <time>1970-01-01T00:00:00+00:00</time>
        <ele>777.0</ele>
      </trkpt>
      <trkpt lat="48.253042" lon="8.300256">
        <time>1970-01-01T00:00:00+00:00</time>
        <ele>784.0</ele>
      </trkpt>
      <trkpt lat="48.253079" lon="8.301252">
        <time>1970-01-01T00:00:00+00:00</time>
        <ele>786.0</ele>
      </trkpt>
      <trkpt lat="48.253113" lon="8.301606">
        <time>1970-01-01T00:00:00+00:00</time>
        <ele>786.0</ele>
      </trkpt>
      <trkpt lat="48.253166" lon="8.301882">
        <time>1970-01-01T00:00:00+00:00</time>
        <ele>786.0</ele>
      </trkpt>
      <trkpt lat="48.253294" lon="8.302269">
        <time>1970-01-01T00:00:00+00:00</time>
        <ele>785.0</ele>
      </trkpt>
      <trkpt lat="48.253373" lon="8.302564">
        <time>1970-01-01T00:00:00+00:00</time>
        <ele>782.0</ele>
      </trkpt>
      <trkpt lat="48.253495" lon="8.303145">
        <time>1970-01-01T00:00:00+00:00</time>
        <ele>774.0</ele>
      </trkpt>
      <trkpt lat="48.253739" lon="8.303906">
        <time>1970-01-01T00:00:00+00:00</time>
        <ele>766.0</ele>
      </trkpt>
      <trkpt lat="48.253899" lon="8.304184">
        <time>1970-01-01T00:00:00+00:00</time>
        <ele>767.0</ele>
      </trkpt>
      <trkpt lat="48.254194" lon="8.304554">
        <time>1970-01-01T00:00:00+00:00</time>
        <ele>775.0</ele>
      </trkpt>
      <trkpt lat="48.254721" lon="8.305095">
        <time>1970-01-01T00:00:00+00:00</time>
        <ele>771.0</ele>
      </trkpt>
      <trkpt lat="48.255067" lon="8.305374">
        <time>1970-01-01T00:00:00+00:00</time>
        <ele>763.0</ele>
      </trkpt>
      <trkpt lat="48.255206" lon="8.305571">
        <time>1970-01-01T00:00:00+00:00</time>
        <ele>764.0</ele>
      </trkpt>
      <trkpt lat="48.255253" lon="8.305716">
        <time>1970-01-01T00:00:00+00:00</time>
        <ele>763.0</ele>
      </trkpt>
      <trkpt lat="48.255333" lon="8.306085">
        <time>1970-01-01T00:00:00+00:00</time>
        <ele>759.0</ele>
      </trkpt>
      <trkpt lat="48.255413" lon="8.306095">
        <time>1970-01-01T00:00:00+00:00</time>
        <ele>759.0</ele>
      </trkpt>
      <trkpt lat="48.255518" lon="8.306166">
        <time>1970-01-01T00:00:00+00:00</time>
        <ele>759.0</ele>
      </trkpt>
      <trkpt lat="48.255712" lon="8.306358">
        <time>1970-01-01T00:00:00+00:00</time>
        <ele>757.0</ele>
      </trkpt>
      <trkpt lat="48.255894" lon="8.306601">
        <time>1970-01-01T00:00:00+00:00</time>
        <ele>755.0</ele>
      </trkpt>
      <trkpt lat="48.256039" lon="8.30686">
        <time>1970-01-01T00:00:00+00:00</time>
        <ele>752.0</ele>
      </trkpt>
      <trkpt lat="48.256293" lon="8.307448">
        <time>1970-01-01T00:00:00+00:00</time>
        <ele>736.0</ele>
      </trkpt>
      <trkpt lat="48.256382" lon="8.307498">
        <time>1970-01-01T00:00:00+00:00</time>
        <ele>732.0</ele>
      </trkpt>
      <trkpt lat="48.256443" lon="8.3076">
        <time>1970-01-01T00:00:00+00:00</time>
        <ele>732.0</ele>
      </trkpt>
      <trkpt lat="48.256566" lon="8.308074">
        <time>1970-01-01T00:00:00+00:00</time>
        <ele>733.0</ele>
      </trkpt>
      <trkpt lat="48.256834" lon="8.308771">
        <time>1970-01-01T00:00:00+00:00</time>
        <ele>738.0</ele>
      </trkpt>
      <trkpt lat="48.256909" lon="8.308993">
        <time>1970-01-01T00:00:00+00:00</time>
        <ele>737.0</ele>
      </trkpt>
      <trkpt lat="48.256965" lon="8.309186">
        <time>1970-01-01T00:00:00+00:00</time>
        <ele>735.0</ele>
      </trkpt>
      <trkpt lat="48.256878" lon="8.30927">
        <time>1970-01-01T00:00:00+00:00</time>
        <ele>733.0</ele>
      </trkpt>
    </trkseg>
  </trk>
</gpx>
